This demonstration page uses our WeatherBlox Daily Observations layout. Learn more.

Hourly Observations for February 14, 2020

Temp ( °F °C ) Dew Point ( °F °C ) Humidity (%) Winds ( mph kmh ) Pressure ( in mb ) Visibility ( mi km ) Precip ( " mm )
12:15 am 00:15 Clear 13 -10.8 0 -17.6 58 58 S 10 17 30.51 1033 10 16.0934 0 0
12:35 am 00:35 Clear 12 -11.2 1 -17.2 62 62 S 10 17 30.52 1033 10 16.0934 0 0
12:55 am 00:55 Clear 11 -11.6 1 -17.1 64 64 S 7 11 30.52 1034 10 16.0934 0 0
1:15 am 01:15 Clear 10 -12.3 1 -17 68 68 SSE 6 9 30.51 1033 10 16.0934 0 0
1:35 am 01:35 Clear 10 -12.2 2 -16.6 70 70 S 7 11 30.51 1033 10 16.0934 0 0
1:55 am 01:55 Clear 10 -12.5 2 -16.5 72 72 S 6 9 30.51 1033 10 16.0934 0 0
2:15 am 02:15 Clear 11 -11.8 4 -15.5 74 74 S 7 11 30.49 1033 10 16.0934 0 0
2:35 am 02:35 Clear 10 -12 5 -15.2 77 77 S 7 11 30.49 1032 10 16.0934 0 0
2:55 am 02:55 Clear 10 -12.2 5 -15.1 79 79 S 8 13 30.49 1032 10 16.0934 0 0
3:15 am 03:15 Clear 11 -11.7 6 -14.7 79 79 S 9 15 30.47 1032 10 16.0934 0 0
3:35 am 03:35 Clear 12 -11.2 7 -14 80 80 S 12 19 30.46 1031 10 16.0934 0 0
3:55 am 03:55 Clear 12 -10.9 7 -13.9 79 79 S 14 22 30.45 1031 10 16.0934 0 0
4:15 am 04:15 Clear 12 -11 7 -13.9 79 79 S 14 22 30.44 1031 10 16.0934 0 0
4:35 am 04:35 Clear 13 -10.7 7 -13.7 79 79 S 14 22 30.43 1031 10 16.0934 0 0
4:55 am 04:55 Clear 13 -10.5 7 -13.7 78 78 S 15 24 30.42 1030 10 16.0934 0 0
5:15 am 05:15 Clear 13 -10.5 8 -13.6 78 78 S 13 20 30.42 1030 10 16.0934 0 0
5:35 am 05:35 Clear 13 -10.5 8 -13.5 79 79 S 16 26 30.41 1030 10 16.0934 0 0
5:55 am 05:55 Clear 13 -10.5 8 -13.3 80 80 S 14 22 30.41 1030 10 16.0934 0 0
6:15 am 06:15 Clear 13 -10.7 8 -13.3 81 81 S 14 22 30.41 1030 10 16.0934 0 0
6:35 am 06:35 Clear 13 -10.8 8 -13.1 83 83 S 13 20 30.4 1030 10 16.0934 0 0
6:55 am 06:55 Clear 13 -10.7 9 -13 83 83 S 13 20 30.4 1030 10 16.0934 0 0
7:15 am 07:15 Clear 13 -10.5 9 -12.7 84 84 S 17 28 30.39 1029 10 16.0934 0 0
7:35 am 07:35 Sunny 13 -10.5 9 -12.6 85 85 S 16 26 30.39 1029 10 16.0934 0 0
7:55 am 07:55 Mostly Cloudy 14 -10.1 10 -12.4 83 83 S 17 28 30.39 1029 10 16.0934 0 0
8:15 am 08:15 Cloudy 15 -9.4 11 -11.9 82 82 S 20 31 30.36 1028 10 16.0934 0 0
8:35 am 08:35 Cloudy 16 -8.7 12 -11.3 82 82 S 20 31 30.35 1028 10 16.0934 0 0
8:55 am 08:55 Cloudy 17 -8.2 13 -10.8 82 82 S 16 26 30.35 1028 10 16.0934 0 0
9:15 am 09:15 Cloudy 18 -7.6 12 -10.9 77 77 S 22 35 30.33 1027 10 16.0934 0 0
9:35 am 09:35 Cloudy 19 -7 13 -10.7 75 75 S 22 35 30.32 1027 10 16.0934 0 0
9:55 am 09:55 Partly Cloudy 22 -5.5 14 -10.2 70 70 S 22 35 30.3 1026 10 16.0934 0 0
10:15 am 10:15 Sunny 24 -4.5 14 -9.8 67 67 S 22 35 30.28 1025 10 16.0934 0 0
10:35 am 10:35 Mostly Cloudy 25 -3.9 15 -9.5 65 65 SSW 24 39 30.27 1025 10 16.0934 0 0
10:55 am 10:55 Cloudy 26 -3.5 15 -9.2 65 65 S 24 39 30.26 1025 10 16.0934 0 0
11:15 am 11:15 Mostly Cloudy 27 -2.8 16 -8.9 63 63 S 25 41 30.23 1024 10 16.0934 0 0
11:35 am 11:35 Cloudy 28 -2.2 17 -8.6 62 62 S 25 41 30.22 1023 10 16.0934 0 0
11:55 am 11:55 Cloudy 30 -1 17 -8.3 58 58 S 24 39 30.19 1023 10 16.0934 0 0
12:15 pm 12:15 Cloudy 30 -0.9 17 -8.1 59 59 S 23 37 30.18 1022 10 16.0934 0 0
12:35 pm 12:35 Partly Cloudy 32 0 18 -8 55 55 S 23 37 30.16 1021 10 16.0934 0 0
12:55 pm 12:55 Sunny 33 0.3 18 -7.9 55 55 S 25 41 30.13 1020 10 16.0934 0 0
1:15 pm 13:15 Sunny 34 1 18 -7.6 53 53 S 28 44 30.12 1020 10 16.0934 0 0
1:35 pm 13:35 Sunny 36 2 19 -7 52 52 S 28 44 30.09 1019 10 16.0934 0 0
1:55 pm 13:55 Sunny 36 2.1 20 -6.9 52 52 S 30 48 30.08 1019 10 16.0934 0 0
2:15 pm 14:15 Sunny 37 2.9 20 -6.6 50 50 S 23 37 30.05 1018 10 16.0934 0 0
2:35 pm 14:35 Sunny 37 2.9 20 -6.7 50 50 S 28 44 30.04 1017 10 16.0934 0 0
2:55 pm 14:55 Sunny 38 3.2 20 -6.7 49 49 S 26 43 30.01 1016 10 16.0934 0 0
3:15 pm 15:15 Sunny 38 3.5 20 -6.7 48 48 S 26 43 30 1016 10 16.0934 0 0
3:35 pm 15:35 Sunny 39 4 21 -6.1 48 48 S 26 43 29.99 1015 10 16.0934 0 0
3:55 pm 15:55 Sunny 39 4.1 21 -6 48 48 S 24 39 29.99 1015 10 16.0934 0 0
4:15 pm 16:15 Sunny 39 4.1 21 -6 48 48 S 24 39 29.99 1015 10 16.0934 0 0
4:35 pm 16:35 Sunny 40 4.5 22 -5.7 48 48 S 22 35 29.97 1015 10 16.0934 0 0
4:55 pm 16:55 Sunny 40 4.4 22 -5.5 49 49 S 22 35 29.96 1015 10 16.0934 0 0
5:15 pm 17:15 Sunny 39 4 22 -5.5 50 50 S 20 31 29.97 1015 10 16.0934 0 0
5:35 pm 17:35 Sunny 39 3.7 22 -5.5 51 51 S 20 31 29.96 1015 10 16.0934 0 0
5:55 pm 17:55 Sunny 37 2.9 22 -5.5 54 54 S 17 28 29.97 1015 10 16.0934 0 0
6:15 pm 18:15 Clear 35 1.8 22 -5.6 58 58 S 18 30 29.98 1015 10 16.0934 0 0
6:35 pm 18:35 Clear 34 1.3 22 -5.5 61 61 S 17 28 29.98 1015 10 16.0934 0 0
6:55 pm 18:55 Clear 34 1 22 -5.5 62 62 S 14 22 30 1016 10 16.0934 0 0
7:15 pm 19:15 Clear 34 1 22 -5.3 63 63 S 17 28 30 1016 10 16.0934 0 0
7:35 pm 19:35 Clear 34 1.1 23 -5 64 64 S 18 30 29.99 1016 10 16.0934 0 0
7:55 pm 19:55 Clear 34 1.1 23 -4.8 65 65 S 18 30 29.99 1016 10 16.0934 0 0
8:15 pm 20:15 Clear 32 0.1 23 -5 69 69 S 14 22 30 1016 10 16.0934 0 0
8:35 pm 20:35 Clear 30 -1 22 -5.6 71 71 S 12 19 30.01 1016 10 16.0934 0 0
8:55 pm 20:55 Clear 29 -1.6 21 -5.9 73 73 S 13 20 30.02 1017 10 16.0934 0 0
9:15 pm 21:15 Clear 29 -1.5 22 -5.7 73 73 S 13 20 30.02 1017 10 16.0934 0 0
9:35 pm 21:35 Clear 28 -2 22 -5.8 76 76 S 12 19 30.02 1017 10 16.0934 0 0
9:55 pm 21:55 Clear 28 -2.2 22 -5.8 77 77 S 15 24 30.02 1016 10 16.0934 0 0
10:15 pm 22:15 Clear 28 -2.3 21 -5.9 77 77 S 16 26 30.01 1016 10 16.0934 0 0
10:35 pm 22:35 Clear 28 -2.5 21 -6 77 77 S 16 26 30.01 1016 10 16.0934 0 0
10:55 pm 22:55 Clear 27 -2.7 21 -6 78 78 S 14 22 30 1016 10 16.0934 0 0
11:15 pm 23:15 Clear 27 -3 21 -6.2 79 79 S 8 13 30.01 1016 10 16.0934 0 0
11:35 pm 23:35 Clear 26 -3.2 21 -6.3 79 79 S 7 11 30.02 1016 10 16.0934 0 0
11:55 pm 23:55 Clear 26 -3.3 21 -6.3 80 80 S 9 15 30.01 1016 10 16.0934 0 0

Powered by AerisWeather